Regional Weather Roundup
Issued by NWS

Home | Current Version | Previous Version | Graphics & Text | Print | Product List | Glossary On
Versions: 1 2 3 4 5 6 7 8 9 10 11 12 13 14 15 16 17 18 19 20 21 22 23 24 25 26 27 28 29 30 31 32 33 34 35 36 37 38 39 40 41 42 43 44 45 46 47 48 49 50
000
ASUS45 KABQ 210301
RWRNM
NEW MEXICO REGIONAL WEATHER ROUNDUP
NATIONAL WEATHER SERVICE ALBUQUERQUE NM
900 PM MDT THU JUL 20 2017

NOTE: "FAIR" MEANS FEW OR NO CLOUDS BELOW 12,000 FEET AGL WITH NO
       SIGNIFICANT WEATHER OR OBSTRUCTIONS TO VISION.

      THIS PRODUCT IS RELEASED AS TWO VERSIONS.  ONE VERSION NEAR
      THE TOP OF THE HOUR CONTAINING PRELIMINARY DATA FROM ALBUQUERQUE
      AND OTHER STATIONS.  A FINAL VERSION WITH ADDITIONAL DATA IS
      ISSUED ABOUT 10 MINUTES AFTER THE HOUR.

NMZ501-503-504-510>518-210400-
NORTHWEST PLATEAU/NORTHCENTRAL MOUNTAINS

CITY           SKY/WX    TMP DP  RH WIND       PRES   REMARKS
FARMINGTON     FAIR      78  51  38 N6        30.16R
LOS ALAMOS     FAIR      75  46  35 S9        30.31R
SANTA FE       FAIR      77  49  37 SE6       30.24R
TAOS           MOCLDY    75  43  31 SW10      30.30R
ANGEL FIRE     CLOUDY    68  47  47 SW3       30.41R

$$
NMZ402-403-502-505>509-210400-
WESTCENTRAL MOUNTAINS/SOUTHWEST MOUNTAINS

CITY           SKY/WX    TMP DP  RH WIND       PRES   REMARKS
GALLUP         CLOUDY    66  58  75 S3        30.26R
GRANTS         FAIR      71  52  51 SW14G20   30.28R
SILVER CITY    RAIN      62  60  95 N7        30.25F

$$
NMZ407-409-411-412-210400-
SOUTHERN DESERTS

CITY           SKY/WX    TMP DP  RH WIND       PRES   REMARKS
DEMING         LGT RAIN  69  67  93 NW5       30.18R
LAS CRUCES     MOCLDY    73  62  67 SW16      30.18R
HOLLOMAN AFB   FAIR      79  62  54 S6        30.12R
ALAMOGORDO     FAIR      79  59  50 SW6       30.12R
T OR C         RAIN      69  63  81 SW23G29   30.17R

$$
NMZ519>523-210400-
CENTRAL VALLEYS/CENTRAL HIGHLANDS

CITY           SKY/WX    TMP DP  RH WIND       PRES   REMARKS
ALBUQUERQUE    MOCLDY    78  55  44 SE14      30.19R
DOUBLE EAGLE   LGT RAIN  75  55  50 S12       30.22R
MORIARTY ARPT  FAIR      69  60  73 S5        30.26R
CLINES CORNERS FAIR      67  51  56 SW8       30.32R
BELEN          NOT AVBL
SOCORRO        FAIR      77  55  45 NW5       30.16R

$$
NMZ524>526-539-540-210400-
SOUTHCENTRAL MOUNTAINS

CITY           SKY/WX    TMP DP  RH WIND       PRES   REMARKS
RUIDOSO        FAIR      66  54  63 SW6       30.34R

$$
NMZ527>531-210400-
NORTHEAST HIGHLANDS/NORTHEAST PLAINS

CITY           SKY/WX    TMP DP  RH WIND       PRES   REMARKS
LAS VEGAS      FAIR      71  46  40 SW12      30.28R
RATON          FAIR      77  45  32 S10       30.20R
CLAYTON        FAIR      76  48  37 S10       30.11R

$$
NMZ532>537-210400-
EASTCENTRAL PLAINS

CITY           SKY/WX    TMP DP  RH WIND       PRES   REMARKS
SANTA ROSA     FAIR      84  48  28 S12       30.12R
TUCUMCARI      FAIR      84  49  29 SW9       30.05R
CANNON AFB     FAIR      82  52  35 S10       30.13R
CLOVIS AIRPORT FAIR      80  54  40 S10       30.12R

$$
NMZ028-029-538-210400-
SOUTHEAST PLAINS

CITY           SKY/WX    TMP DP  RH WIND       PRES   REMARKS
ROSWELL        FAIR      86  53  32 S10       30.06R
ARTESIA        FAIR      86  55  35 S7        30.06R
CARLSBAD       FAIR      88  54  31 SE14      30.03R
HOBBS          FAIR      82  54  36 SE8       30.11R


$$




USA.gov is the U.S. government's official web portal to all federal, state and local government web resources and services.